When you browse on this site, cookies collect data to enhance your experience and personalize the content and advertising you see.
Visit our Privacy Policy to learn more. By continuing to use the site, you agree to this use of cookies and data.
  • In Österreich
  • Länderverzeichnis
  • Für 7 Tage
  • Wassertemperatur
  • Wetterkarte
  • News
  • Widgets
  • user-avatar
    Anmelden

    Stündliche Wetter Baden

    Heute, 23 September, Montag

    Zeit Temperatur Niederschläge Wind Luftdruck Luftfeuchtigkeit
    00:00 +14°C° 0 mm 1 m/S 732 mmHg 69%
    01:00 +13°C° 0 mm 1 m/S 732 mmHg 71%
    02:00 +13°C° 0 mm 1 m/S 732 mmHg 72%
    03:00 +13°C° 0 mm 1 m/S 732 mmHg 73%
    04:00 +12°C° 0 mm 0 m/S 732 mmHg 74%
    05:00 +12°C° 0 mm 0 m/S 732 mmHg 74%
    06:00 +13°C° 0 mm 0 m/S 732 mmHg 74%
    07:00 +13°C° 0 mm 0 m/S 732 mmHg 73%
    08:00 +16°C° 0 mm 1 m/S 732 mmHg 68%
    09:00 +18°C° 0 mm 1 m/S 733 mmHg 63%
    10:00 +19°C° 0 mm 2 m/S 733 mmHg 58%
    11:00 +20°C° 0 mm 2 m/S 733 mmHg 59%
    12:00 +21°C° 0 mm 3 m/S 733 mmHg 59%
    13:00 +21°C° 0 mm 3 m/S 734 mmHg 59%
    14:00 +20°C° 0 mm 4 m/S 734 mmHg 63%
    15:00 +19°C° 0 mm 5 m/S 733 mmHg 68%
    16:00 +17°C° 0 mm 6 m/S 733 mmHg 72%
    17:00 +16°C° 0 mm 5 m/S 734 mmHg 75%
    18:00 +15°C° 0 mm 5 m/S 734 mmHg 78%
    19:00 +14°C° 0 mm 5 m/S 734 mmHg 80%
    20:00 +14°C° 0.1 mm 5 m/S 735 mmHg 81%
    21:00 +14°C° 0.1 mm 5 m/S 735 mmHg 81%
    22:00 +14°C° 0.1 mm 5 m/S 735 mmHg 82%
    23:00 +14°C° 0.1 mm 5 m/S 735 mmHg 82%

    Morgen, 24 September, Dienstag

    Zeit Temperatur Niederschläge Wind Luftdruck Luftfeuchtigkeit
    00:00 +14°C° 0.1 mm 4 m/S 735 mmHg 82%
    01:00 +14°C° 0.1 mm 4 m/S 735 mmHg 82%
    02:00 +13°C° 0 mm 4 m/S 735 mmHg 83%
    03:00 +13°C° 0 mm 4 m/S 735 mmHg 83%
    04:00 +13°C° 0 mm 4 m/S 734 mmHg 83%
    05:00 +13°C° 0 mm 4 m/S 734 mmHg 82%
    06:00 +13°C° 0 mm 4 m/S 734 mmHg 82%
    07:00 +14°C° 0 mm 3 m/S 734 mmHg 81%
    08:00 +16°C° 0 mm 3 m/S 734 mmHg 77%
    09:00 +16°C° 0 mm 3 m/S 734 mmHg 73%
    10:00 +17°C° 0 mm 4 m/S 735 mmHg 69%
    11:00 +19°C° 0 mm 3 m/S 734 mmHg 64%
    12:00 +20°C° 0 mm 3 m/S 734 mmHg 58%
    13:00 +21°C° 0 mm 2 m/S 733 mmHg 53%
    14:00 +21°C° 0 mm 2 m/S 733 mmHg 53%
    15:00 +22°C° 0 mm 1 m/S 732 mmHg 53%
    16:00 +22°C° 0 mm 1 m/S 732 mmHg 53%
    17:00 +21°C° 0 mm 1 m/S 732 mmHg 59%
    18:00 +19°C° 0 mm 1 m/S 732 mmHg 64%
    19:00 +16°C° 0 mm 0 m/S 732 mmHg 70%
    20:00 +16°C° 0 mm 1 m/S 732 mmHg 72%
    21:00 +16°C° 0 mm 1 m/S 732 mmHg 74%
    22:00 +15°C° 0 mm 1 m/S 732 mmHg 76%
    23:00 +15°C° 0 mm 1 m/S 732 mmHg 77%

    übermorgen, 25 September, Mittwoch

    Zeit Temperatur Niederschläge Wind Luftdruck Luftfeuchtigkeit
    00:00 +15°C° 0 mm 1 m/S 732 mmHg 79%
    01:00 +14°C° 0 mm 1 m/S 732 mmHg 80%
    02:00 +14°C° 0 mm 1 m/S 732 mmHg 80%
    03:00 +14°C° 0 mm 1 m/S 731 mmHg 79%
    04:00 +15°C° 0 mm 1 m/S 731 mmHg 79%
    05:00 +14°C° 0 mm 0 m/S 731 mmHg 77%
    06:00 +14°C° 0 mm 0 m/S 731 mmHg 76%
    07:00 +15°C° 0 mm 0 m/S 731 mmHg 74%
    08:00 +16°C° 0.2 mm 0 m/S 732 mmHg 72%
    09:00 +18°C° 0.2 mm 1 m/S 732 mmHg 69%
    10:00 +19°C° 0.2 mm 1 m/S 732 mmHg 67%
    11:00 +20°C° 0.1 mm 1 m/S 732 mmHg 63%
    12:00 +20°C° 0.1 mm 2 m/S 732 mmHg 58%
    13:00 +21°C° 0.1 mm 2 m/S 731 mmHg 54%
    14:00 +20°C° 0.3 mm 3 m/S 731 mmHg 60%
    15:00 +19°C° 0.3 mm 3 m/S 731 mmHg 65%
    16:00 +17°C° 0.3 mm 4 m/S 731 mmHg 71%
    17:00 +15°C° 0.6 mm 4 m/S 731 mmHg 75%
    18:00 +15°C° 0.6 mm 4 m/S 732 mmHg 79%
    19:00 +14°C° 0.6 mm 4 m/S 732 mmHg 83%
    20:00 +14°C° 0.7 mm 4 m/S 732 mmHg 83%
    21:00 +13°C° 0.7 mm 3 m/S 733 mmHg 82%
    22:00 +13°C° 0.7 mm 3 m/S 733 mmHg 81%
    23:00 +14°C° 0.3 mm 2 m/S 733 mmHg 81%

    26 September, Donnerstag

    Zeit Temperatur Niederschläge Wind Luftdruck Luftfeuchtigkeit
    00:00 +14°C° 0.3 mm 2 m/S 733 mmHg 80%
    01:00 +14°C° 0.3 mm 2 m/S 733 mmHg 80%
    02:00 +14°C° 0.1 mm 2 m/S 733 mmHg 80%
    03:00 +14°C° 0.1 mm 2 m/S 734 mmHg 80%
    04:00 +14°C° 0.1 mm 2 m/S 734 mmHg 80%
    05:00 +14°C° 0 mm 2 m/S 734 mmHg 79%
    06:00 +14°C° 0 mm 2 m/S 734 mmHg 78%
    07:00 +14°C° 0 mm 2 m/S 734 mmHg 78%
    08:00 +15°C° 0 mm 2 m/S 735 mmHg 70%
    09:00 +17°C° 0 mm 3 m/S 735 mmHg 63%
    10:00 +19°C° 0 mm 3 m/S 735 mmHg 56%
    11:00 +20°C° 0 mm 3 m/S 735 mmHg 53%
    12:00 +20°C° 0 mm 4 m/S 735 mmHg 51%
    13:00 +21°C° 0 mm 5 m/S 735 mmHg 49%
    14:00 +20°C° 0 mm 5 m/S 735 mmHg 52%
    15:00 +19°C° 0 mm 5 m/S 735 mmHg 56%
    16:00 +19°C° 0 mm 5 m/S 735 mmHg 59%
    17:00 +18°C° 0 mm 4 m/S 735 mmHg 63%
    18:00 +17°C° 0 mm 3 m/S 735 mmHg 67%
    19:00 +16°C° 0 mm 3 m/S 736 mmHg 71%
    20:00 +16°C° 0 mm 2 m/S 736 mmHg 71%
    21:00 +16°C° 0 mm 2 m/S 736 mmHg 71%
    22:00 +16°C° 0 mm 2 m/S 737 mmHg 72%
    23:00 +16°C° 0 mm 2 m/S 737 mmHg 72%

    27 September, Freitag

    Zeit Temperatur Niederschläge Wind Luftdruck Luftfeuchtigkeit
    00:00 +16°C° 0 mm 1 m/S 737 mmHg 73%
    01:00 +16°C° 0 mm 1 m/S 737 mmHg 73%
    02:00 +16°C° 0 mm 1 m/S 737 mmHg 74%
    03:00 +15°C° 0 mm 1 m/S 737 mmHg 75%
    04:00 +15°C° 0 mm 1 m/S 736 mmHg 76%
    05:00 +15°C° 0 mm 1 m/S 736 mmHg 75%
    06:00 +16°C° 0 mm 1 m/S 736 mmHg 75%
    07:00 +16°C° 0 mm 1 m/S 736 mmHg 74%
    08:00 +19°C° 0 mm 1 m/S 736 mmHg 67%
    09:00 +21°C° 0 mm 1 m/S 737 mmHg 61%
    10:00 +22°C° 0 mm 1 m/S 737 mmHg 54%
    11:00 +24°C° 0 mm 2 m/S 736 mmHg 50%
    12:00 +25°C° 0 mm 2 m/S 736 mmHg 47%
    13:00 +26°C° 0 mm 3 m/S 736 mmHg 43%
    14:00 +25°C° 0 mm 3 m/S 735 mmHg 45%
    15:00 +25°C° 0 mm 3 m/S 735 mmHg 46%
    16:00 +25°C° 0 mm 3 m/S 735 mmHg 48%
    17:00 +22°C° 0 mm 3 m/S 735 mmHg 54%
    18:00 +21°C° 0 mm 3 m/S 735 mmHg 59%
    19:00 +19°C° 0 mm 3 m/S 735 mmHg 65%
    20:00 +18°C° 0 mm 3 m/S 735 mmHg 67%
    21:00 +18°C° 0 mm 2 m/S 735 mmHg 68%
    22:00 +18°C° 0 mm 2 m/S 735 mmHg 70%
    23:00 +17°C° 0 mm 2 m/S 735 mmHg 72%

    28 September, Samstag

    Zeit Temperatur Niederschläge Wind Luftdruck Luftfeuchtigkeit
    00:00 +16°C° 0 mm 2 m/S 735 mmHg 75%
    01:00 +16°C° 0 mm 2 m/S 735 mmHg 77%
    02:00 +16°C° 0 mm 1 m/S 735 mmHg 77%
    03:00 +16°C° 0 mm 1 m/S 734 mmHg 77%
    04:00 +16°C° 0 mm 1 m/S 734 mmHg 76%
    05:00 +18°C° 0 mm 1 m/S 734 mmHg 75%
    06:00 +18°C° 0 mm 1 m/S 734 mmHg 74%
    07:00 +16°C° 0 mm 0 m/S 734 mmHg 73%
    08:00 +18°C° 0.1 mm 1 m/S 735 mmHg 74%
    09:00 +17°C° 0.1 mm 2 m/S 735 mmHg 76%
    10:00 +17°C° 0.1 mm 2 m/S 735 mmHg 77%
    11:00 +17°C° 0.1 mm 2 m/S 735 mmHg 78%
    12:00 +17°C° 0.1 mm 2 m/S 735 mmHg 79%
    13:00 +18°C° 0.1 mm 1 m/S 735 mmHg 80%
    14:00 +18°C° 0 mm 1 m/S 735 mmHg 78%
    15:00 +18°C° 0 mm 1 m/S 735 mmHg 76%
    16:00 +18°C° 0 mm 1 m/S 734 mmHg 75%
    17:00 +18°C° 0 mm 1 m/S 735 mmHg 76%
    18:00 +18°C° 0 mm 1 m/S 735 mmHg 77%
    19:00 +16°C° 0 mm 1 m/S 735 mmHg 78%
    20:00 +16°C° 0 mm 1 m/S 735 mmHg 78%
    21:00 +16°C° 0 mm 1 m/S 735 mmHg 78%
    22:00 +16°C° 0 mm 1 m/S 736 mmHg 78%
    23:00 +16°C° 0.1 mm 1 m/S 736 mmHg 78%
    Mehr zeigen